Location: McFarlands Corners
(41.4117°N, 81.3382°W)
Time: 18:39:05
(UTC+00:00)

Tiros 1 - Pass Details

Date: 22 February 2026
Orbit: 618 x 649 km, 48.4° (Epoch: 10 March)

Event Time Altitude Azimuth Distance (km) Brightness Sun altitude
Rises 18:01:32 0° 297° (WNW) 2,897 10.3 38.3°
Reaches altitude 10° 18:03:52 10° 295° (WNW) 1,986 9.6 38.3°
Maximum altitude 18:08:23 65° 214° (SSW) 678 8.5 38.1°
Drops below altitude 10° 18:12:52 10° 132° (SE) 1,971 10.1 38.0°
Sets 18:15:10 0° 130° (SE) 2,875 10.8 37.9°
